This is the latest recevied weather packets stored in our database for station/object W5COG. If no packets are shown the sender has not sent any weather packets the latest 10 day(s).
| Time | Temp. | Humidity | Pressure | Rain* | Wind** | Luminosity | Snow |
|---|---|---|---|---|---|---|---|
| 1777765827 | 19.44° C | 36% | 1018.7 hPa | 0 mm | - | 31 W/m² | - |
| 1777765527 | 19.44° C | 35% | 1018.7 hPa | 0 mm | - | 31 W/m² | - |
| 1777765227 | 19.44° C | 35% | 1018.7 hPa | 0 mm | - | 33 W/m² | - |
| 1777764927 | 20° C | 33% | 1018.7 hPa | 0 mm | - | 34 W/m² | - |
| 1777764627 | 20° C | 30% | 1018.7 hPa | 0 mm | - | 37 W/m² | - |
| 1777764327 | 20° C | 32% | 1018.7 hPa | 0 mm | - | 40 W/m² | - |
| 1777764027 | 20° C | 32% | 1018.8 hPa | 0 mm | - | 36 W/m² | - |
| 1777763727 | 20° C | 31% | 1018.8 hPa | 0 mm | - | 37 W/m² | - |
| 1777763427 | 20° C | 32% | 1018.8 hPa | 0 mm | - | 58 W/m² | - |
| 1777763127 | 20° C | 31% | 1018.9 hPa | 0 mm | - | 45 W/m² | - |
| 1777762827 | 20° C | 32% | 1018.9 hPa | 0 mm | - | 53 W/m² | - |
| 1777762527 | 20° C | 32% | 1018.9 hPa | 0 mm | - | 40 W/m² | - |
| 1777762227 | 20° C | 33% | 1018.9 hPa | 0 mm | - | 41 W/m² | - |
| 1777761927 | 20.56° C | 32% | 1018.8 hPa | 0 mm | - | 46 W/m² | - |
| 1777761627 | 20.56° C | 32% | 1018.9 hPa | 0 mm | - | 143 W/m² | - |
| 1777761327 | 20.56° C | 32% | 1018.9 hPa | 0 mm | - | 452 W/m² | - |
| 1777761027 | 20.56° C | 34% | 1018.9 hPa | 0 mm | - | 476 W/m² | - |
| 1777760727 | 20.56° C | 31% | 1018.9 hPa | 0 mm | - | 491 W/m² | - |
| 1777760427 | 20.56° C | 32% | 1018.9 hPa | 0 mm | - | 508 W/m² | - |
| 1777760127 | 20.56° C | 30% | 1018.9 hPa | 0 mm | - | 525 W/m² | - |
| 1777759827 | 20.56° C | 31% | 1019 hPa | 0 mm | - | 538 W/m² | - |
| 1777759527 | 21.11° C | 31% | 1019 hPa | 0 mm | - | 552 W/m² | - |
| 1777759227 | 20.56° C | 31% | 1019 hPa | 0 mm | - | 569 W/m² | - |
| 1777758927 | 20.56° C | 33% | 1019.1 hPa | 0 mm | - | 584 W/m² | - |
| 1777758627 | 20.56° C | 31% | 1019.1 hPa | 0 mm | - | 599 W/m² | - |
* Rain latest hour (hover to see other rain measurements)
** Current wind speed in m/s (hover to see current wind gust speed)